Time,TemperatureF,DewpointF,PressureIn,WindDirection,WindDirectionDegrees,WindSpeedMPH,WindSpeedGustMPH,Humidity,HourlyPrecipIn,Conditions,Clouds,dailyrainin,SoftwareType,DateUTC
2014-08-20 00:14:00,78.8,77.0,29.87,West,271,1.0,4.0,93,0.00,,,1.79,weatherlink.com 1.10,2014-08-20 04:14:00,
2014-08-20 00:29:00,78.3,77.0,29.87,WNW,295,1.0,4.0,94,0.00,,,1.79,weatherlink.com 1.10,2014-08-20 04:29:00,
2014-08-20 00:44:00,77.9,76.0,29.87,West,263,1.0,3.0,94,0.00,,,0.00,weatherlink.com 1.10,2014-08-20 04:44:00,
2014-08-20 00:59:00,77.6,76.0,29.87,WNW,295,1.0,2.0,94,0.00,,,0.00,weatherlink.com 1.10,2014-08-20 04:59:00,
2014-08-20 01:14:00,77.5,76.0,29.87,NW,312,0.0,2.0,94,0.00,,,0.00,weatherlink.com 1.10,2014-08-20 05:14:00,
2014-08-20 01:29:00,77.4,76.0,29.86,NNW,327,1.0,3.0,94,0.00,,,0.00,weatherlink.com 1.10,2014-08-20 05:29:00,
2014-08-20 01:44:00,77.2,76.0,29.86,NW,321,2.0,3.0,95,0.00,,,0.00,weatherlink.com 1.10,2014-08-20 05:44:00,
2014-08-20 01:59:00,77.0,76.0,29.86,North,360,2.0,3.0,95,0.00,,,0.00,weatherlink.com 1.10,2014-08-20 05:59:00,
2014-08-20 02:14:00,77.2,76.0,29.86,North,7,1.0,4.0,95,0.00,,,0.00,weatherlink.com 1.10,2014-08-20 06:14:00,
2014-08-20 02:29:00,77.3,76.0,29.85,North,6,0.0,4.0,95,0.00,,,0.00,weatherlink.com 1.10,2014-08-20 06:29:00,
2014-08-20 02:44:00,77.4,76.0,29.85,NNE,15,1.0,4.0,94,0.00,,,0.00,weatherlink.com 1.10,2014-08-20 06:44:00,
2014-08-20 02:59:00,77.4,76.0,29.85,North,6,3.0,7.0,94,0.00,,,0.00,weatherlink.com 1.10,2014-08-20 06:59:00,
2014-08-20 03:14:00,77.5,75.0,29.85,NNE,24,2.0,6.0,93,0.00,,,0.00,weatherlink.com 1.10,2014-08-20 07:14:00,
2014-08-20 03:29:00,77.5,75.0,29.86,NNW,342,1.0,5.0,93,0.00,,,0.00,weatherlink.com 1.10,2014-08-20 07:29:00,
2014-08-20 03:44:00,77.6,76.0,29.86,North,351,1.0,4.0,94,0.00,,,0.00,weatherlink.com 1.10,2014-08-20 07:44:00,
2014-08-20 04:00:00,77.7,76.0,29.87,North,8,0.0,5.0,94,0.00,,,0.00,weatherlink.com 1.10,2014-08-20 08:00:00,
2014-08-20 04:15:00,77.6,76.0,29.87,North,353,2.0,6.0,94,0.00,,,0.00,weatherlink.com 1.10,2014-08-20 08:15:00,
2014-08-20 04:30:00,77.6,76.0,29.87,NW,309,0.0,3.0,94,0.00,,,0.00,weatherlink.com 1.10,2014-08-20 08:30:00,
2014-08-20 04:45:00,77.5,76.0,29.88,NNW,340,1.0,3.0,94,0.00,,,0.00,weatherlink.com 1.10,2014-08-20 08:45:00,
2014-08-20 05:00:00,77.3,76.0,29.88,NNE,16,1.0,3.0,94,0.00,,,0.00,weatherlink.com 1.10,2014-08-20 09:00:00,
2014-08-20 05:15:00,77.2,76.0,29.88,NNW,347,0.0,4.0,95,0.00,,,0.00,weatherlink.com 1.10,2014-08-20 09:15:00,
2014-08-20 05:30:00,77.0,76.0,29.89,North,11,1.0,3.0,95,0.00,,,0.00,weatherlink.com 1.10,2014-08-20 09:30:00,
2014-08-20 05:45:00,76.7,75.0,29.89,NW,321,1.0,3.0,95,0.00,,,0.00,weatherlink.com 1.10,2014-08-20 09:45:00,
2014-08-20 06:00:00,76.3,75.0,29.89,NNW,328,2.0,2.0,95,0.00,,,0.00,weatherlink.com 1.10,2014-08-20 10:00:00,
2014-08-20 06:15:00,75.9,75.0,29.89,NW,315,2.0,3.0,96,0.00,,,0.00,weatherlink.com 1.10,2014-08-20 10:15:00,
2014-08-20 06:30:00,75.7,75.0,29.90,WNW,294,2.0,5.0,96,0.00,,,0.00,weatherlink.com 1.10,2014-08-20 10:30:00,
2014-08-20 06:45:00,75.6,74.0,29.91,NNW,334,3.0,5.0,96,0.00,,,0.00,weatherlink.com 1.10,2014-08-20 10:45:00,
2014-08-20 07:00:00,75.4,74.0,29.92,WNW,302,3.0,5.0,96,0.00,,,0.00,weatherlink.com 1.10,2014-08-20 11:00:00,
2014-08-20 07:15:00,75.5,74.0,29.93,NNW,330,3.0,5.0,96,0.00,,,0.00,weatherlink.com 1.10,2014-08-20 11:15:00,
2014-08-20 07:30:00,75.6,74.0,29.94,NW,319,5.0,5.0,96,0.00,,,0.00,weatherlink.com 1.10,2014-08-20 11:30:00,
2014-08-20 07:45:00,75.7,75.0,29.94,NNW,332,1.0,7.0,96,0.00,,,0.00,weatherlink.com 1.10,2014-08-20 11:45:00,
2014-08-20 08:00:00,75.8,75.0,29.95,North,8,7.0,11.0,96,0.00,,,0.00,weatherlink.com 1.10,2014-08-20 12:00:00,
2014-08-20 08:15:00,75.7,74.0,29.95,NNE,28,5.0,9.0,95,0.00,,,0.00,weatherlink.com 1.10,2014-08-20 12:15:00,
2014-08-20 08:30:00,76.2,75.0,29.95,North,359,4.0,9.0,95,0.00,,,0.00,weatherlink.com 1.10,2014-08-20 12:30:00,
2014-08-20 08:45:00,76.1,74.0,29.95,NW,326,3.0,9.0,93,0.00,,,0.00,weatherlink.com 1.10,2014-08-20 12:45:00,
2014-08-20 09:00:00,76.8,75.0,29.96,NNE,18,4.0,7.0,93,0.00,,,0.00,weatherlink.com 1.10,2014-08-20 13:00:00,
2014-08-20 09:15:00,77.6,75.0,29.96,NNE,27,4.0,7.0,92,0.00,,,0.00,weatherlink.com 1.10,2014-08-20 13:15:00,
2014-08-20 09:30:00,78.8,75.0,29.97,NW,304,3.0,8.0,89,0.00,,,0.00,weatherlink.com 1.10,2014-08-20 13:30:00,
2014-08-20 09:45:00,79.7,75.0,29.98,NE,34,3.0,10.0,86,0.00,,,0.00,weatherlink.com 1.10,2014-08-20 13:45:00,
2014-08-20 10:00:00,80.1,75.0,29.98,NNW,342,6.0,10.0,85,0.00,,,0.00,weatherlink.com 1.10,2014-08-20 14:00:00,
2014-08-20 10:15:00,80.8,75.0,29.98,NE,49,6.0,13.0,82,0.00,,,0.00,weatherlink.com 1.10,2014-08-20 14:15:00,
2014-08-20 10:30:00,80.8,75.0,29.98,NE,54,6.0,16.0,82,0.00,,,0.00,weatherlink.com 1.10,2014-08-20 14:30:00,
2014-08-20 10:45:00,81.2,75.0,29.99,NE,48,7.0,12.0,81,0.00,,,0.00,weatherlink.com 1.10,2014-08-20 14:45:00,
2014-08-20 11:00:00,81.4,75.0,29.99,NNE,30,4.0,12.0,81,0.00,,,0.00,weatherlink.com 1.10,2014-08-20 15:00:00,
2014-08-20 11:15:00,82.4,76.0,29.99,NE,37,9.0,11.0,80,0.00,,,0.00,weatherlink.com 1.10,2014-08-20 15:15:00,
2014-08-20 11:30:00,82.8,75.0,29.99,NE,53,6.0,11.0,78,0.00,,,0.00,weatherlink.com 1.10,2014-08-20 15:30:00,
2014-08-20 11:45:00,83.2,76.0,29.99,North,7,5.0,10.0,79,0.00,,,0.00,weatherlink.com 1.10,2014-08-20 15:45:00,
2014-08-20 12:00:00,83.2,75.0,29.99,NE,56,6.0,11.0,76,0.00,,,0.00,weatherlink.com 1.10,2014-08-20 16:00:00,
2014-08-20 12:30:00,83.3,75.0,29.99,ENE,58,7.0,16.0,76,0.00,,,0.00,weatherlink.com 1.10,2014-08-20 16:30:00,
2014-08-20 12:45:00,83.7,75.0,29.99,ENE,62,6.0,16.0,76,0.00,,,0.00,weatherlink.com 1.10,2014-08-20 16:45:00,
2014-08-20 13:01:00,83.0,75.0,29.99,ENE,72,10.0,14.0,77,0.00,,,0.00,weatherlink.com 1.10,2014-08-20 17:01:00,
2014-08-20 13:16:00,82.7,75.0,29.99,ENE,76,7.0,11.0,78,0.00,,,0.00,weatherlink.com 1.10,2014-08-20 17:16:00,
2014-08-20 13:31:00,82.7,75.0,29.99,East,80,8.0,10.0,78,0.00,,,0.00,weatherlink.com 1.10,2014-08-20 17:31:00,
2014-08-20 13:46:00,83.0,76.0,29.99,ESE,108,5.0,8.0,78,0.00,,,0.00,weatherlink.com 1.10,2014-08-20 17:46:00,
2014-08-20 14:01:00,83.2,76.0,29.99,ESE,120,3.0,8.0,80,0.00,,,0.00,weatherlink.com 1.10,2014-08-20 18:01:00,
2014-08-20 14:16:00,83.3,77.0,29.99,SE,130,4.0,5.0,80,0.00,,,0.00,weatherlink.com 1.10,2014-08-20 18:16:00,
2014-08-20 14:31:00,83.5,76.0,29.98,SE,137,3.0,6.0,79,0.00,,,0.00,weatherlink.com 1.10,2014-08-20 18:31:00,
2014-08-20 14:46:00,84.1,78.0,29.98,SE,143,7.0,7.0,82,0.00,,,0.00,weatherlink.com 1.10,2014-08-20 18:46:00,
2014-08-20 15:01:00,82.8,77.0,29.98,SSE,164,3.0,9.0,82,0.00,,,0.00,weatherlink.com 1.10,2014-08-20 19:01:00,
2014-08-20 15:16:00,83.8,78.0,29.98,SW,220,3.0,7.0,82,0.00,,,0.00,weatherlink.com 1.10,2014-08-20 19:16:00,
2014-08-20 15:31:00,84.1,78.0,29.98,SE,143,2.0,8.0,81,0.00,,,0.00,weatherlink.com 1.10,2014-08-20 19:31:00,
2014-08-20 15:46:00,84.3,77.0,29.98,SE,146,7.0,9.0,79,0.00,,,0.00,weatherlink.com 1.10,2014-08-20 19:46:00,
2014-08-20 16:01:00,84.6,78.0,29.98,SE,145,3.0,10.0,81,0.00,,,0.00,weatherlink.com 1.10,2014-08-20 20:01:00,
2014-08-20 16:16:00,84.8,78.0,29.98,SSE,160,3.0,8.0,79,0.00,,,0.00,weatherlink.com 1.10,2014-08-20 20:16:00,
2014-08-20 16:31:00,84.5,78.0,29.98,South,189,6.0,9.0,80,0.00,,,0.00,weatherlink.com 1.10,2014-08-20 20:31:00,
2014-08-20 16:46:00,83.7,77.0,29.99,South,191,4.0,9.0,81,0.00,,,0.00,weatherlink.com 1.10,2014-08-20 20:46:00,
2014-08-20 17:01:00,82.5,77.0,29.98,South,171,4.0,10.0,82,0.00,,,0.00,weatherlink.com 1.10,2014-08-20 21:01:00,
2014-08-20 17:16:00,82.5,78.0,29.98,South,179,7.0,10.0,85,0.00,,,0.00,weatherlink.com 1.10,2014-08-20 21:16:00,
2014-08-20 17:31:00,82.2,77.0,29.99,SW,219,9.0,10.0,84,0.00,,,0.00,weatherlink.com 1.10,2014-08-20 21:31:00,
2014-08-20 17:46:00,82.0,76.0,29.99,SW,220,6.0,10.0,83,0.00,,,0.00,weatherlink.com 1.10,2014-08-20 21:46:00,
2014-08-20 18:01:00,82.1,77.0,29.99,SW,217,6.0,10.0,85,0.00,,,0.00,weatherlink.com 1.10,2014-08-20 22:01:00,
2014-08-20 18:16:00,81.8,77.0,29.99,WSW,246,9.0,11.0,85,0.00,,,0.00,weatherlink.com 1.10,2014-08-20 22:16:00,
2014-08-20 18:31:00,81.7,77.0,29.99,WSW,250,5.0,9.0,85,0.00,,,0.00,weatherlink.com 1.10,2014-08-20 22:31:00,
2014-08-20 18:46:00,81.9,77.0,29.99,WSW,258,3.0,10.0,84,0.00,,,0.00,weatherlink.com 1.10,2014-08-20 22:46:00,
2014-08-20 19:01:00,82.0,77.0,29.99,SW,231,2.0,6.0,84,0.00,,,0.00,weatherlink.com 1.10,2014-08-20 23:01:00,
2014-08-20 19:16:00,82.4,76.0,29.99,WSW,245,5.0,9.0,82,0.00,,,0.00,weatherlink.com 1.10,2014-08-20 23:16:00,
2014-08-20 19:31:00,81.9,77.0,29.99,SW,236,4.0,5.0,84,0.00,,,0.00,weatherlink.com 1.10,2014-08-20 23:31:00,
2014-08-20 19:46:00,81.4,77.0,29.99,West,260,2.0,6.0,85,0.00,,,0.00,weatherlink.com 1.10,2014-08-20 23:46:00,
2014-08-20 20:01:00,80.9,76.0,29.99,WSW,244,2.0,3.0,86,0.00,,,0.00,weatherlink.com 1.10,2014-08-21 00:01:00,
2014-08-20 20:16:00,80.6,77.0,30.00,WSW,248,0.0,2.0,87,0.00,,,0.00,weatherlink.com 1.10,2014-08-21 00:16:00,
2014-08-20 20:31:00,80.2,76.0,30.00,West,262,0.0,2.0,88,0.00,,,0.00,weatherlink.com 1.10,2014-08-21 00:31:00,
2014-08-20 20:46:00,80.0,77.0,30.00,WSW,240,1.0,4.0,89,0.00,,,0.00,weatherlink.com 1.10,2014-08-21 00:46:00,
2014-08-20 21:01:00,79.8,76.0,30.01,West,264,1.0,1.0,88,0.00,,,0.00,weatherlink.com 1.10,2014-08-21 01:01:00,